| time (UTC) | temp F | wind direction | speed MPH | gust MPH | rain 1hr in | rain 24hr in | rain mn in | humidity % | barometer mb |
| 20260903014535 | 55 | 322 | 2.0 | 5.0 | 0.05 | 0.28 | 0.28 | 96 | 1010.7 |
| 20260903013036 | 55 | 290 | 1.0 | 4.0 | 0.07 | 0.28 | 0.27 | 95 | 1010.8 |
| 20260903011531 | 55 | 272 | 1.0 | 5.0 | 0.06 | 0.27 | 0.25 | 95 | 1011.0 |
| 20260903010110 | 55 | 290 | 0.0 | 4.0 | 0.07 | 0.25 | 0.23 | 95 | 1011.0 |
| 20260903004531 | 55 | 280 | 1.0 | 4.0 | 0.08 | 0.23 | 0.21 | 95 | 1011.1 |
| 20260903003037 | 55 | 260 | 3.0 | 10.0 | 0.07 | 0.21 | 0.21 | 94 | 1010.9 |
| 20260903001610 | 56 | 304 | 3.0 | 6.0 | 0.07 | 0.21 | 0.18 | 94 | 1011.0 |
| 20260902233111 | 56 | 328 | 2.0 | 5.0 | 0.01 | 0.14 | 0.14 | 93 | 1011.1 |
| 20260902230035 | 56 | 297 | 3.0 | 7.0 | 0.02 | 0.14 | 0.14 | 93 | 1011.3 |
| 20260902224534 | 56 | 297 | 2.0 | 6.0 | 0.04 | 0.14 | 0.13 | 93 | 1011.2 |
| 20260902223035 | 56 | 277 | 2.0 | 6.0 | 0.04 | 0.13 | 0.12 | 92 | 1011.1 |
| 20260902221533 | 56 | 282 | 3.0 | 9.0 | 0.05 | 0.12 | 0.12 | 92 | 1011.1 |
| 20260902220035 | 56 | 317 | 1.0 | 7.0 | 0.06 | 0.12 | 0.10 | 91 | 1011.0 |
| 20260902214535 | 56 | 303 | 2.0 | 6.0 | 0.06 | 0.10 | 0.09 | 90 | 1010.8 |
| 20260902213037 | 56 | 4 | 1.0 | 5.0 | 0.07 | 0.09 | 0.07 | 88 | 1010.7 |
| 20260902211535 | 56 | 325 | 0.0 | 4.0 | 0.07 | 0.07 | 0.06 | 88 | 1010.6 |
| 20260902210034 | 56 | 156 | 0.0 | 4.0 | 0.06 | 0.06 | 0.04 | 87 | 1010.8 |
| 20260902204608 | 56 | 110 | 2.0 | 5.0 | 0.04 | 0.04 | 0.02 | 86 | 1011.0 |
| 20260902203108 | 57 | 126 | 1.0 | 4.0 | 0.02 | 0.02 | 0.00 | 84 | 1011.0 |
| 20260902201534 | 57 | 169 | 3.0 | 5.0 | 0.00 | 0.00 | 0.00 | 81 | 1011.2 |
| 20260902200034 | 58 | 166 | 5.0 | 11.0 | 0.00 | 0.00 | 0.00 | 78 | 1011.0 |
| 20260902194535 | 58 | 179 | 3.0 | 11.0 | 0.00 | 0.00 | 0.00 | 74 | 1011.0 |
| 20260902193036 | 58 | 139 | 5.0 | 12.0 | 0.00 | 0.00 | 0.00 | 72 | 1010.9 |
| 20260902191534 | 59 | 125 | 5.0 | 12.0 | 0.00 | 0.00 | 0.00 | 71 | 1010.9 |
| 20260902190035 | 60 | 115 | 2.0 | 7.0 | 0.00 | 0.00 | 0.00 | 74 | 1011.0 |
| 20260902184535 | 60 | 298 | 2.0 | 6.0 | 0.00 | 0.00 | 0.00 | 74 | 1011.1 |
| 20260902183036 | 60 | 280 | 1.0 | 3.0 | 0.00 | 0.00 | 0.00 | 73 | 1011.3 |
| 20260902181532 | 60 | 271 | 1.0 | 5.0 | 0.00 | 0.00 | 0.00 | 74 | 1011.1 |
| 20260902180033 | 59 | 262 | 0.0 | 4.0 | 0.00 | 0.00 | 0.00 | 75 | 1011.2 |
| 20260902174609 | 59 | 273 | 2.0 | 8.0 | 0.00 | 0.00 | 0.00 | 74 | 1011.1 |
| 20260902173033 | 61 | 277 | 4.0 | 9.0 | 0.00 | 0.00 | 0.00 | 71 | 1011.0 |
| 20260902171535 | 62 | 286 | 5.0 | 10.0 | 0.00 | 0.00 | 0.00 | 68 | 1011.1 |
| 20260902164535 | 62 | 288 | 3.0 | 8.0 | 0.00 | 0.00 | 0.00 | 68 | 1011.4 |
| 20260902163152 | 59 | 296 | 0.0 | 4.0 | 0.00 | 0.00 | 0.00 | 74 | 1011.6 |
| 20260902161534 | 57 | 327 | 0.0 | 4.0 | 0.00 | 0.00 | 0.00 | 79 | 1011.9 |
| 20260902160035 | 56 | 299 | 1.0 | 4.0 | 0.00 | 0.00 | 0.00 | 81 | 1012.0 |
| 20260902154534 | 55 | 346 | 1.0 | 4.0 | 0.00 | 0.00 | 0.00 | 85 | 1012.2 |
| 20260902153110 | 54 | 120 | 0.0 | 5.0 | 0.00 | 0.00 | 0.00 | 88 | 1012.3 |
| 20260902151537 | 52 | 204 | 0.0 | 5.0 | 0.00 | 0.00 | 0.00 | 91 | 1012.2 |
| 20260902150035 | 51 | 155 | 0.0 | 3.0 | 0.00 | 0.00 | 0.00 | 92 | 1012.4 |
| 20260902144536 | 49 | 133 | 0.0 | 4.0 | 0.00 | 0.00 | 0.00 | 93 | 1012.5 |
| 20260902141531 | 48 | 153 | 2.0 | 4.0 | 0.00 | 0.00 | 0.00 | 94 | 1012.6 |
| 20260902134536 | 46 | 159 | 2.0 | 6.0 | 0.00 | 0.00 | 0.00 | 94 | 1012.6 |
| 20260902133038 | 45 | 186 | 2.0 | 5.0 | 0.00 | 0.00 | 0.00 | 94 | 1012.7 |
| 20260902131538 | 45 | 168 | 2.0 | 5.0 | 0.00 | 0.00 | 0.00 | 93 | 1012.8 |
| 20260902130109 | 45 | 155 | 3.0 | 5.0 | 0.00 | 0.00 | 0.00 | 93 | 1012.7 |
| 20260902124534 | 45 | 146 | 3.0 | 6.0 | 0.00 | 0.00 | 0.00 | 92 | 1012.8 |
| 20260902123034 | 45 | 311 | 0.0 | 5.0 | 0.00 | 0.00 | 0.00 | 91 | 1012.8 |
| 20260902121609 | 46 | 63 | 0.0 | 3.0 | 0.00 | 0.00 | 0.00 | 90 | 1012.9 |
| 20260902120136 | 47 | 242 | 0.0 | 4.0 | 0.00 | 0.00 | 0.00 | 88 | 1013.0 |
| 20260902114532 | 48 | 1 | 1.0 | 4.0 | 0.00 | 0.00 | 0.00 | 86 | 1012.9 |
| 20260902113034 | 50 | 112 | 2.0 | 4.0 | 0.00 | 0.00 | 0.00 | 82 | 1012.9 |
| 20260902111536 | 52 | 215 | 2.0 | 7.0 | 0.00 | 0.00 | 0.00 | 79 | 1012.9 |
| 20260902110142 | 54 | 318 | 4.0 | 9.0 | 0.00 | 0.00 | 0.00 | 76 | 1012.9 |
| 20260902104531 | 55 | 318 | 5.0 | 12.0 | 0.00 | 0.00 | 0.00 | 75 | 1013.0 |
| 20260902101537 | 54 | 296 | 7.0 | 17.0 | 0.00 | 0.00 | 0.00 | 76 | 1013.3 |
| 20260902100037 | 55 | 252 | 4.0 | 10.0 | 0.00 | 0.00 | 0.00 | 74 | 1013.2 |
| 20260902094536 | 56 | 289 | 5.0 | 14.0 | 0.00 | 0.00 | 0.00 | 73 | 1013.5 |
| 20260902093034 | 56 | 299 | 6.0 | 14.0 | 0.00 | 0.00 | 0.00 | 73 | 1013.5 |
| 20260902091536 | 56 | 306 | 5.0 | 13.0 | 0.00 | 0.00 | 0.00 | 73 | 1013.6 |
| 20260902090032 | 56 | 298 | 8.0 | 15.0 | 0.00 | 0.00 | 0.00 | 73 | 1013.5 |
| 20260902084536 | 56 | 311 | 8.0 | 15.0 | 0.00 | 0.00 | 0.00 | 73 | 1013.4 |
| 20260902083036 | 56 | 308 | 8.0 | 18.0 | 0.00 | 0.00 | 0.00 | 73 | 1013.6 |
| 20260902081536 | 55 | 304 | 6.0 | 15.0 | 0.00 | 0.00 | 0.00 | 75 | 1013.7 |
| 20260902073036 | 56 | 302 | 7.0 | 18.0 | 0.00 | 0.00 | 0.00 | 76 | 1013.8 |
| 20260902071531 | 56 | 321 | 9.0 | 20.0 | 0.00 | 0.00 | 0.00 | 75 | 1013.8 |
| 20260902070108 | 56 | 315 | 7.0 | 15.0 | 0.00 | 0.00 | 0.00 | 74 | 1014.1 |
| 20260902064703 | 57 | 308 | 8.0 | 19.0 | 0.00 | 0.00 | 0.00 | 73 | 1014.3 |
| 20260902063035 | 58 | 303 | 8.0 | 15.0 | 0.00 | 0.00 | 0.00 | 72 | 1014.6 |
| 20260902060036 | 58 | 294 | 9.0 | 20.0 | 0.00 | 0.00 | 0.00 | 70 | 1014.6 |
| 20260902054535 | 58 | 294 | 8.0 | 15.0 | 0.00 | 0.00 | 0.00 | 70 | 1014.8 |
| 20260902053036 | 58 | 296 | 7.0 | 14.0 | 0.00 | 0.00 | 0.00 | 69 | 1014.8 |
| 20260902051534 | 59 | 288 | 10.0 | 19.0 | 0.00 | 0.00 | 0.00 | 69 | 1014.6 |
| 20260902050034 | 58 | 290 | 9.0 | 18.0 | 0.00 | 0.00 | 0.00 | 70 | 1014.5 |
| 20260902044534 | 59 | 288 | 9.0 | 18.0 | 0.00 | 0.00 | 0.00 | 70 | 1014.4 |
| 20260902043035 | 59 | 296 | 9.0 | 19.0 | 0.00 | 0.00 | 0.00 | 69 | 1014.2 |
| 20260902041536 | 59 | 299 | 8.0 | 19.0 | 0.00 | 0.00 | 0.00 | 68 | 1014.2 |
| 20260902040034 | 59 | 292 | 9.0 | 24.0 | 0.00 | 0.00 | 0.00 | 69 | 1013.9 |
| 20260902034535 | 59 | 293 | 8.0 | 17.0 | 0.00 | 0.00 | 0.00 | 69 | 1013.7 |
| 20260902033143 | 59 | 294 | 11.0 | 22.0 | 0.00 | 0.00 | 0.00 | 69 | 1013.4 |
| 20260902031537 | 59 | 292 | 10.0 | 22.0 | 0.00 | 0.00 | 0.00 | 68 | 1013.3 |
| 20260902024536 | 59 | 296 | 7.0 | 17.0 | 0.00 | 0.00 | 0.00 | 68 | 1013.7 |
| 20260902023035 | 59 | 293 | 6.0 | 15.0 | 0.00 | 0.00 | 0.00 | 67 | 1013.6 |
| 20260902021537 | 60 | 296 | 9.0 | 23.0 | 0.00 | 0.00 | 0.00 | 67 | 1013.6 |
| 20260902020036 | 61 | 301 | 7.0 | 16.0 | 0.00 | 0.00 | 0.00 | 64 | 1013.4 |